LA3SP-1 Weather Reports


time (UTC)temp
F
wind
direction
speed
knots
gust
knots
rain 1hr
in
rain 24hr
in
rain mn
in
humidity
%
barometer
mb
20260506041329 21 315 0.0 0.0 0.00 0.00 0.00 72 1007.0
20260506035326 21 315 1.7 0.0 0.00 0.00 0.00 72 1006.8
20260506033324 21 315 1.7 0.0 0.00 0.00 0.00 72 1006.8
20260506032323 21 225 0.0 0.0 0.00 0.00 0.00 73 1006.6
20260506030320 21 225 0.0 0.0 0.00 0.00 0.00 72 1006.5
20260506024317 21 225 0.0 0.0 0.00 0.00 0.00 73 1006.7
20260506023316 21 225 0.0 0.0 0.00 0.00 0.00 73 1006.7
20260506022314 21 225 0.0 0.0 0.00 0.00 0.00 73 1006.8
20260506021314 21 225 0.0 0.0 0.00 0.00 0.00 72 1006.7
20260506012308 22 225 0.0 0.0 0.00 0.00 0.00 72 1006.5
20260506011305 22 225 0.0 0.0 0.00 0.00 0.00 71 1006.3
20260506010303 22 225 0.0 0.0 0.00 0.00 0.00 71 1006.4
20260506003300 22 225 0.0 0.0 0.00 0.00 0.00 71 1006.0
20260506000255 23 225 0.0 0.0 0.00 0.00 0.00 70 1006.0
20260505235410 23 225 0.0 0.0 0.00 0.00 0.00 69 1006.1
20260505235253 23 225 0.0 0.0 0.00 0.00 0.00 70 1006.2
20260505234252 23 225 0.0 0.0 0.00 0.00 0.00 69 1006.1
20260505232250 24 225 0.0 0.0 0.00 0.00 0.00 70 1006.0
20260505231248 24 225 0.0 0.0 0.00 0.00 0.00 70 1006.0
20260505222241 25 225 0.0 0.0 0.00 0.00 0.00 70 1006.0
20260505215237 25 225 0.0 0.0 0.00 0.00 0.00 71 1006.1
20260505214235 25 225 0.0 0.0 0.00 0.00 0.00 71 1006.1
20260505212233 25 225 0.0 0.0 0.00 0.00 0.00 70 1006.1
20260505211232 25 225 0.0 0.0 0.00 0.00 0.00 70 1006.1
20260505210230 24 225 0.0 0.0 0.00 0.00 0.00 70 1006.0
20260505205229 25 225 0.0 0.0 0.00 0.00 0.00 69 1006.2
20260505204227 25 225 0.0 0.0 0.00 0.00 0.00 68 1006.1
20260505203226 25 225 0.0 0.0 0.00 0.00 0.00 67 1005.9
20260505201223 25 225 0.9 0.0 0.00 0.00 0.00 66 1005.9
20260505200222 26 225 0.0 0.0 0.00 0.00 0.00 65 1005.9
20260505195220 27 225 0.0 0.0 0.00 0.00 0.00 64 1005.9
20260505194219 27 225 0.0 0.0 0.00 0.00 0.00 63 1005.7
20260505193217 27 225 0.0 0.0 0.00 0.00 0.00 63 1005.6
20260505190214 28 225 2.6 0.0 0.00 0.00 0.00 61 1005.6
20260505185212 28 225 0.9 0.0 0.00 0.00 0.00 61 1005.5
20260505184211 28 157 2.6 0.0 0.00 0.00 0.00 60 1005.6
20260505183209 28 157 2.6 0.0 0.00 0.00 0.00 60 1005.4
20260505182208 29 292 0.9 0.0 0.00 0.00 0.00 59 1005.3
20260505180205 29 247 0.0 0.0 0.00 0.00 0.00 58 1005.2
20260505175204 30 270 4.3 0.0 0.00 0.00 0.00 59 1005.3
20260505174202 30 292 4.3 0.0 0.00 0.00 0.00 58 1005.3
20260505173201 31 270 3.5 0.0 0.00 0.00 0.00 59 1005.2
20260505171159 32 315 6.1 0.0 0.00 0.00 0.00 58 1005.2
20260505170158 32 270 1.7 0.0 0.00 0.00 0.00 59 1005.2
20260505165156 32 292 6.1 0.0 0.00 0.00 0.00 59 1005.2
20260505164154 33 315 0.0 0.0 0.00 0.00 0.00 59 1005.1
20260505163153 33 247 0.0 0.0 0.00 0.00 0.00 57 1005.4
20260505162151 35 225 0.0 0.0 0.00 0.00 0.00 53 1005.4
20260505161150 36 247 0.0 0.0 0.00 0.00 0.00 50 1005.3
20260505153144 40 135 2.6 0.0 0.00 0.00 0.00 52 1005.1
20260505152143 39 157 5.2 0.0 0.00 0.00 0.00 53 1005.0
20260505151142 37 180 1.7 0.0 0.00 0.00 0.00 51 1004.9
20260505140132 39 135 3.5 0.0 0.00 0.00 0.00 50 1004.7
20260505130124 37 157 3.5 0.0 0.00 0.00 0.00 49 1004.9
20260505124121 39 247 2.6 0.0 0.00 0.00 0.00 46 1005.0
20260505122118 39 225 4.3 0.0 0.00 0.00 0.00 45 1005.1
20260505121117 38 270 0.0 0.0 0.00 0.00 0.00 45 1005.0
20260505120115 41 292 5.2 0.0 0.00 0.00 0.00 44 1004.9
20260505115114 41 180 5.2 0.0 0.00 0.00 0.00 47 1005.0
20260505114112 41 157 5.2 0.0 0.00 0.00 0.00 46 1004.9
20260505113111 41 157 2.6 0.0 0.00 0.00 0.00 48 1004.9
20260505111109 40 180 3.5 0.0 0.00 0.00 0.00 51 1004.8
20260505110107 38 180 4.3 0.0 0.00 0.00 0.00 50 1004.8
20260505101100 35 157 4.3 0.0 0.00 0.00 0.00 54 1004.7
20260505100059 35 247 0.0 0.0 0.00 0.00 0.00 51 1004.8
20260505095058 35 67 3.5 0.0 0.00 0.00 0.00 53 1004.7
20260505094056 36 247 3.5 0.0 0.00 0.00 0.00 51 1004.8
20260505093054 37 157 1.7 0.0 0.00 0.00 0.00 55 1004.7
20260505092053 35 157 7.8 0.0 0.00 0.00 0.00 57 1004.7
20260505090051 33 225 0.0 0.0 0.00 0.00 0.00 57 1004.5
20260505085049 33 135 1.7 0.0 0.00 0.00 0.00 57 1004.6
20260505084048 32 292 1.7 0.0 0.00 0.00 0.00 56 1004.5
20260505083515 34 157 4.3 0.0 0.00 0.00 0.00 59 1004.7
20260505082046 34 157 4.3 0.0 0.00 0.00 0.00 59 1004.7
20260505075043 30 292 1.7 0.0 0.00 0.00 0.00 61 1004.5
20260505074039 29 135 1.7 0.0 0.00 0.00 0.00 64 1004.3
20260505073447 26 292 4.3 0.0 0.00 0.00 0.00 64 1004.4
20260505073038 27 315 0.9 0.0 0.00 0.00 0.00 64 1004.5
20260505072036 26 292 4.3 0.0 0.00 0.00 0.00 64 1004.4
20260505065033 25 315 0.9 0.0 0.00 0.00 0.00 64 1003.8
20260505064031 25 67 0.0 0.0 0.00 0.00 0.00 64 1003.7
20260505062028 24 270 3.5 0.0 0.00 0.00 0.00 64 1003.8
20260505061027 24 247 4.3 0.0 0.00 0.00 0.00 65 1003.7
20260505060025 24 247 0.0 0.0 0.00 0.00 0.00 66 1003.9
20260505051018 23 247 0.0 0.0 0.00 0.00 0.00 71 1003.5